TimeCDT,TemperatureF,Dew PointF,Humidity,Sea Level PressureIn,VisibilityMPH,Wind Direction,Wind SpeedMPH,Gust SpeedMPH,PrecipitationIn,Events,Conditions,WindDirDegrees,DateUTC
12:14 AM,44.6,40.5,85,29.82,10.0,North,12.7,21.9,N/A,,Overcast,350,2012-10-25 05:14:00
12:35 AM,44.2,40.6,87,29.82,10.0,NNW,17.3,21.9,N/A,,Overcast,340,2012-10-25 05:35:00
12:55 AM,43.0,40.6,91,29.81,5.0,NNW,16.1,19.6,N/A,,Light Drizzle,340,2012-10-25 05:55:00
1:14 AM,42.4,40.5,93,29.80,5.0,NNW,15.0,21.9,N/A,Rain,Light Rain,340,2012-10-25 06:14:00
1:34 AM,42.3,40.5,93,29.80,7.0,NNW,16.1,21.9,N/A,,Light Drizzle,340,2012-10-25 06:34:00
1:54 AM,42.3,40.6,94,29.77,10.0,North,13.8,20.7,N/A,,Overcast,350,2012-10-25 06:54:00
2:14 AM,42.3,40.6,94,29.77,10.0,North,13.8,23.0,N/A,,Overcast,350,2012-10-25 07:14:00
2:34 AM,42.4,40.5,93,29.78,10.0,NNW,18.4,-,N/A,,Overcast,340,2012-10-25 07:34:00
2:54 AM,42.4,40.5,93,29.78,10.0,NNW,17.3,23.0,N/A,,Overcast,340,2012-10-25 07:54:00
3:14 AM,42.1,40.1,93,29.78,4.0,NNW,20.7,27.6,N/A,,Drizzle,340,2012-10-25 08:14:00
3:34 AM,41.9,39.7,92,29.77,7.0,NNW,18.4,23.0,N/A,,Overcast,330,2012-10-25 08:34:00
3:54 AM,41.4,39.6,93,29.79,7.0,NNW,12.7,26.5,N/A,,Overcast,340,2012-10-25 08:54:00
4:14 AM,41.0,39.6,95,29.78,3.0,NNW,15.0,21.9,N/A,,Drizzle,330,2012-10-25 09:14:00
4:34 AM,40.3,39.4,97,29.75,4.0,North,16.1,23.0,0.01,Rain,Light Rain,350,2012-10-25 09:34:00
4:54 AM,40.1,39.2,97,29.73,4.0,NNW,18.4,24.2,0.02,Rain,Rain,340,2012-10-25 09:54:00
5:14 AM,39.7,38.8,97,29.76,2.5,NNW,16.1,24.2,0.02,Rain-Thunderstorm,Rain,330,2012-10-25 10:14:00
5:34 AM,39.4,38.3,96,29.78,4.0,NNW,13.8,23.0,0.05,Rain,Rain,330,2012-10-25 10:34:00
5:54 AM,38.5,37.4,96,29.78,3.0,NNW,17.3,25.3,0.08,Rain,Rain,330,2012-10-25 10:54:00
6:14 AM,38.3,37.0,95,29.79,4.0,NNW,19.6,23.0,0.01,Rain,Rain,330,2012-10-25 11:14:00
6:34 AM,37.2,36.0,95,29.77,3.0,NNW,20.7,28.8,0.04,,Overcast,330,2012-10-25 11:34:00
7:34 AM,35.2,34.3,97,29.78,4.0,NNW,18.4,26.5,0.02,Rain,Light Rain,330,2012-10-25 12:34:00
7:54 AM,35.2,34.3,97,29.78,3.0,NNW,15.0,27.6,0.03,Rain,Light Rain,330,2012-10-25 12:54:00
8:15 AM,34.3,33.4,97,29.78,4.0,NNW,20.7,27.6,0.01,Rain,Light Rain,330,2012-10-25 13:15:00
8:34 AM,34.2,33.3,97,29.79,4.0,NNW,18.4,24.2,0.02,Rain,Light Rain,330,2012-10-25 13:34:00
8:54 AM,33.8,33.1,97,29.81,3.0,NW,11.5,24.2,0.03,,Overcast,320,2012-10-25 13:54:00
9:14 AM,33.3,32.9,99,29.82,1.5,NW,12.7,19.6,0.01,Snow,Light Snow,320,2012-10-25 14:14:00
9:34 AM,33.8,33.1,97,29.83,3.0,NW,13.8,19.6,0.02,Snow,Light Snow,320,2012-10-25 14:34:00
9:54 AM,34.0,33.1,96,29.84,3.0,NW,19.6,28.8,0.02,Rain,Light Rain,320,2012-10-25 14:54:00
10:34 AM,32.9,32.2,97,29.85,1.0,NW,15.0,24.2,0.01,Snow,Light Snow,310,2012-10-25 15:34:00
10:54 AM,32.5,32.0,98,29.87,1.2,NW,12.7,24.2,0.02,Snow,Light Snow,310,2012-10-25 15:54:00
11:14 AM,32.9,32.0,96,29.88,1.8,NW,17.3,24.2,N/A,Snow,Light Snow,310,2012-10-25 16:14:00
11:34 AM,32.5,32.0,98,29.88,1.2,NW,11.5,20.7,N/A,Snow,Light Snow,310,2012-10-25 16:34:00
11:54 AM,32.4,32.0,99,29.89,1.0,NW,13.8,21.9,0.01,Snow,Light Snow,310,2012-10-25 16:54:00
12:15 PM,32.4,32.0,99,29.90,0.8,NW,16.1,20.7,N/A,Snow,Light Snow,310,2012-10-25 17:15:00
12:34 PM,32.7,32.2,98,29.89,1.5,NW,11.5,20.7,N/A,Snow,Light Snow,310,2012-10-25 17:34:00
12:54 PM,33.8,32.2,94,29.89,5.0,NW,13.8,24.2,N/A,Snow,Light Snow,320,2012-10-25 17:54:00
1:14 PM,34.7,32.0,90,29.90,10.0,NW,11.5,19.6,N/A,,Mostly Cloudy,310,2012-10-25 18:14:00
1:34 PM,35.1,32.0,89,29.91,10.0,WNW,11.5,18.4,N/A,,Overcast,300,2012-10-25 18:34:00
1:54 PM,35.6,32.0,87,29.91,10.0,NW,12.7,21.9,N/A,,Overcast,310,2012-10-25 18:54:00
2:15 PM,35.8,32.0,86,29.93,10.0,NW,16.1,23.0,N/A,,Overcast,310,2012-10-25 19:15:00
2:34 PM,36.7,32.0,83,29.93,10.0,NW,17.3,23.0,N/A,,Overcast,310,2012-10-25 19:34:00
3:14 PM,37.4,31.8,80,29.93,10.0,NW,13.8,20.7,N/A,,Overcast,310,2012-10-25 20:14:00
3:34 PM,37.6,31.6,79,29.94,10.0,NW,11.5,21.9,N/A,,Overcast,310,2012-10-25 20:34:00
3:54 PM,37.9,31.6,78,29.95,10.0,NW,16.1,21.9,N/A,,Overcast,320,2012-10-25 20:54:00
4:14 PM,37.9,31.5,77,29.95,10.0,WNW,12.7,21.9,N/A,,Overcast,300,2012-10-25 21:14:00
4:34 PM,37.8,30.7,76,29.96,10.0,NW,16.1,21.9,N/A,,Overcast,310,2012-10-25 21:34:00
4:54 PM,37.8,30.4,75,29.97,10.0,NW,12.7,23.0,N/A,,Overcast,310,2012-10-25 21:54:00
5:34 PM,37.4,30.0,75,30.00,10.0,WNW,19.6,25.3,N/A,,Overcast,290,2012-10-25 22:34:00
5:54 PM,36.9,29.8,76,30.02,10.0,WNW,13.8,24.2,N/A,,Overcast,290,2012-10-25 22:54:00
6:14 PM,36.7,29.1,74,30.03,10.0,WNW,13.8,21.9,N/A,,Overcast,300,2012-10-25 23:14:00
6:34 PM,36.5,29.3,75,30.05,10.0,WNW,13.8,19.6,N/A,,Overcast,290,2012-10-25 23:34:00
6:54 PM,36.5,29.5,76,30.06,10.0,WNW,11.5,21.9,N/A,,Overcast,290,2012-10-25 23:54:00
7:14 PM,36.5,29.8,77,30.07,10.0,WNW,13.8,19.6,N/A,,Overcast,290,2012-10-26 00:14:00
7:34 PM,36.5,29.8,77,30.07,10.0,West,8.1,18.4,N/A,,Overcast,280,2012-10-26 00:34:00
7:54 PM,36.5,29.5,76,30.09,10.0,West,15.0,-,N/A,,Overcast,280,2012-10-26 00:54:00
8:14 PM,36.5,29.5,76,30.09,10.0,West,11.5,16.1,N/A,,Overcast,270,2012-10-26 01:14:00
8:34 PM,36.5,29.3,75,30.09,10.0,West,11.5,19.6,N/A,,Overcast,280,2012-10-26 01:34:00
8:54 PM,36.7,28.9,74,30.10,10.0,West,11.5,17.3,N/A,,Overcast,270,2012-10-26 01:54:00
9:14 PM,36.7,28.4,72,30.10,10.0,West,13.8,18.4,N/A,,Overcast,280,2012-10-26 02:14:00
9:35 PM,36.5,28.0,71,30.11,10.0,West,13.8,19.6,N/A,,Overcast,280,2012-10-26 02:35:00
9:54 PM,36.5,27.3,69,30.12,10.0,West,15.0,20.7,N/A,,Overcast,270,2012-10-26 02:54:00
10:54 PM,36.5,27.5,70,30.14,10.0,West,13.8,20.7,N/A,,Overcast,280,2012-10-26 03:54:00
11:14 PM,36.5,27.1,69,30.14,10.0,West,11.5,20.7,N/A,,Overcast,280,2012-10-26 04:14:00
11:34 PM,36.1,26.6,68,30.15,10.0,West,15.0,19.6,N/A,,Overcast,280,2012-10-26 04:34:00